Morgantown, WV

1:49 PM EDT on August 18, 2017 (GMT -0400)
Morgantown Municipal-Hart

Weather History for KMGW - October, 2013

Change the Weather History Date:

Thursday, October 17, 2013

  Actual Average Record
Temperature  
Mean Temperature 56 °F 54 °F  
Max Temperature 62 °F 64 °F 84 °F (1968)
Min Temperature 50 °F 43 °F 27 °F (1982)
Degree Days  
Heating Degree Days 9 11  
Month to date heating degree days 57 156  
Since 1 July heating degree days 145 253  
Cooling Degree Days 0 0  
Month to date cooling degree days 36 10  
Year to date cooling degree days 906 811  
Growing Degree Days 6 (Base 50)    
Moisture  
Dew Point 55 °F    
Average Humidity 92    
Maximum Humidity 100    
Minimum Humidity 83    
Precipitation  
Precipitation 0.26 in 0.08 in 1.24 in (1948)
Month to date precipitation 1.09 1.55  
Year to date precipitation 32.28 34.23  
Sea Level Pressure  
Sea Level Pressure 29.87 in    
Wind  
Wind Speed 3 mph (WNW)    
Max Wind Speed 14 mph    
Max Gust Speed 23 mph    
Visibility 5 miles    
Events Rain    
T = Trace of Precipitation, MM = Missing Value Source: NWS Daily Summary

Daily Weather History Graph

Daily Weather History Graph

Search for Another Location

Airport or City:

Trip Planner

Search our weather history database for the weather conditions in past years. The results will help you decide how hot, cold, wet, or windy it might be!

Date:

Astronomy

Oct. 17, 2013 Rise Set
Actual Time 7:32 AM EDT 6:37 PM EDT
Civil Twilight 7:04 AM EDT 7:04 PM EDT
Nautical Twilight 6:33 AM EDT 7:35 PM EDT
Astronomical Twilight 6:02 AM EDT 8:06 PM EDT
Moon 5:50 PM EDT (10/17) 6:02 AM EDT (10/17)
Length of Visible Light 11h 59m
Length of Day
11h 05m
Waxing Gibbous, 98% of the Moon is Illuminated
Oct 17
Waxing Gibbous
Oct 18
Full
Oct 26
Last Quarter
Nov 3
New
Nov 10
First Quarter

Hourly Weather History & Observations

Time (EDT) Temp. Dew Point Humidity Pressure Visibility Wind Dir Wind Speed Gust Speed Precip Events Conditions
12:05 AM 62.6 °F 59.0 °F 88% 29.95 in 10.0 mi SSW 4.6 mph - N/A   Overcast
12:53 AM 62.1 °F 59.0 °F 90% 29.92 in 9.0 mi SSW 4.6 mph - N/A   Overcast
1:53 AM 62.1 °F 60.1 °F 93% 29.92 in 6.0 mi South 3.5 mph - 0.01 in Rain Light Rain
2:25 AM 62.6 °F 60.8 °F 94% 29.94 in 3.0 mi SSW 4.6 mph - 0.01 in Rain Light Rain
2:53 AM 61.0 °F 60.1 °F 97% 29.92 in 3.0 mi SSW 4.6 mph - 0.03 in Rain Light Rain
3:30 AM 60.8 °F 60.8 °F 100% 29.92 in 5.0 mi SSW 3.5 mph - 0.01 in   Overcast
3:53 AM 61.0 °F 60.1 °F 97% 29.91 in 9.0 mi SSW 3.5 mph - 0.01 in   Overcast
4:22 AM 60.8 °F 60.8 °F 100% 29.92 in 6.0 mi NW 3.5 mph - 0.00 in   Overcast
4:53 AM 60.1 °F 57.9 °F 93% 29.91 in 8.0 mi Calm Calm - 0.01 in Rain Light Rain
5:53 AM 60.1 °F 57.9 °F 93% 29.91 in 6.0 mi Calm Calm - 0.00 in   Overcast
6:12 AM 60.8 °F 57.2 °F 88% 29.93 in 4.0 mi Calm Calm - N/A   Overcast
6:21 AM 60.8 °F 57.2 °F 88% 29.92 in 3.0 mi Calm Calm - 0.01 in   Overcast
6:32 AM 59.0 °F 57.2 °F 94% 29.92 in 2.5 mi North 6.9 mph - 0.01 in   Overcast
6:39 AM 57.2 °F 57.2 °F 100% 29.92 in 3.0 mi NNE 5.8 mph - 0.01 in   Overcast
6:53 AM 57.9 °F 57.0 °F 97% 29.91 in 4.0 mi North 4.6 mph - 0.01 in   Overcast
7:53 AM 57.0 °F 55.9 °F 96% 29.91 in 2.0 mi NNE 4.6 mph - 0.00 in Rain Light Rain
8:02 AM 55.4 °F 55.4 °F 100% 29.92 in 1.8 mi North 3.5 mph - 0.00 in   Overcast
8:25 AM 55.4 °F 55.4 °F 100% 29.91 in 2.0 mi North 3.5 mph - 0.00 in   Overcast
8:35 AM 55.4 °F 55.4 °F 100% 29.92 in 1.8 mi North 3.5 mph - 0.00 in   Overcast
8:49 AM 55.4 °F 55.4 °F 100% 29.91 in 2.0 mi North 3.5 mph - 0.00 in   Overcast
8:53 AM 55.9 °F 55.0 °F 97% 29.91 in 2.0 mi Variable 3.5 mph - 0.00 in   Overcast
9:23 AM 55.4 °F 55.4 °F 100% 29.91 in 3.0 mi Calm Calm - N/A   Overcast
9:33 AM 57.2 °F 55.4 °F 94% 29.91 in 2.5 mi Calm Calm - N/A   Overcast
9:53 AM 57.0 °F 55.0 °F 93% 29.90 in 2.5 mi Calm Calm - N/A   Overcast
10:14 AM 57.2 °F 55.4 °F 94% 29.91 in 3.0 mi Calm Calm - N/A   Overcast
10:27 AM 57.2 °F 55.4 °F 94% 29.91 in 1.8 mi Calm Calm - N/A   Overcast
10:53 AM 55.9 °F 55.0 °F 97% 29.89 in 1.0 mi North 4.6 mph - N/A   Overcast
11:17 AM 57.2 °F 55.4 °F 94% 29.89 in 2.5 mi NNE 3.5 mph - N/A   Overcast
11:42 AM 57.2 °F 55.4 °F 94% 29.88 in 1.5 mi NNE 3.5 mph - 0.01 in   Overcast
11:53 AM 57.0 °F 55.9 °F 96% 29.87 in 1.8 mi Calm Calm - 0.01 in   Overcast
12:05 PM 57.2 °F 55.4 °F 94% 29.88 in 2.0 mi Calm Calm - N/A   Overcast
12:15 PM 57.2 °F 55.4 °F 94% 29.87 in 1.5 mi North 3.5 mph - 0.02 in Rain Light Rain
12:24 PM 57.2 °F 55.4 °F 94% 29.86 in 3.0 mi North 3.5 mph - 0.02 in Rain Light Rain
12:53 PM 57.9 °F 55.9 °F 93% 29.84 in 5.0 mi North 3.5 mph - 0.02 in   Overcast
1:53 PM 57.9 °F 57.0 °F 97% 29.79 in 4.0 mi Calm Calm - N/A   Overcast
2:53 PM 59.0 °F 57.9 °F 96% 29.75 in 5.0 mi Calm Calm - 0.01 in   Overcast
3:42 PM 60.8 °F 57.2 °F 88% 29.73 in 2.5 mi Calm Calm - N/A   Overcast
3:53 PM 60.1 °F 59.0 °F 96% 29.72 in 2.5 mi Calm Calm - N/A   Overcast
4:00 PM 60.8 °F 59.0 °F 94% 29.73 in 4.0 mi Calm Calm - N/A   Overcast
4:08 PM 60.8 °F 59.0 °F 94% 29.72 in 4.0 mi Calm Calm - N/A   Overcast
4:30 PM 60.8 °F 59.0 °F 94% 29.72 in 1.8 mi Calm Calm - 0.02 in Rain Light Rain
4:44 PM 62.6 °F 60.8 °F 94% 29.73 in 3.0 mi Variable 3.5 mph - 0.03 in Rain Light Rain
4:51 PM 60.8 °F 57.2 °F 88% 29.74 in 2.5 mi WNW 12.7 mph 23.0 mph 0.05 in Rain Rain
4:53 PM 59.0 °F 57.0 °F 93% 29.73 in 2.5 mi WNW 10.4 mph 23.0 mph 0.06 in Rain Rain
5:04 PM 57.2 °F 55.4 °F 94% 29.75 in 10.0 mi NW 6.9 mph 16.1 mph 0.00 in   Overcast
5:11 PM 57.2 °F 55.4 °F 94% 29.76 in 10.0 mi Variable 3.5 mph - 0.00 in   Overcast
5:39 PM 53.6 °F 51.8 °F 94% 29.82 in 2.5 mi Variable 4.6 mph 20.7 mph 0.04 in Rain Rain
5:46 PM 53.6 °F 51.8 °F 94% 29.82 in 2.0 mi Calm Calm - 0.06 in Rain Light Rain
5:53 PM 54.0 °F 51.1 °F 90% 29.81 in 5.0 mi Calm Calm - 0.06 in Rain Light Rain
6:03 PM 53.6 °F 51.8 °F 94% 29.82 in 6.0 mi NW 3.5 mph - 0.01 in Rain Light Rain
6:30 PM 53.6 °F 51.8 °F 94% 29.84 in 10.0 mi Variable 4.6 mph - 0.02 in   Overcast
6:53 PM 53.1 °F 51.1 °F 93% 29.86 in 10.0 mi SW 3.5 mph - 0.02 in   Overcast
7:09 PM 53.6 °F 50.0 °F 88% 29.88 in 10.0 mi Variable 4.6 mph - N/A   Overcast
7:37 PM 51.8 °F 48.2 °F 88% 29.90 in 8.0 mi West 10.4 mph 23.0 mph N/A   Overcast
7:53 PM 51.1 °F 48.0 °F 89% 29.92 in 6.0 mi West 10.4 mph - N/A   Overcast
8:14 PM 51.8 °F 48.2 °F 88% 29.93 in 10.0 mi West 5.8 mph - 0.00 in   Overcast
8:35 PM 51.8 °F 48.2 °F 88% 29.94 in 10.0 mi West 3.5 mph - 0.01 in   Overcast
8:53 PM 51.1 °F 46.9 °F 86% 29.94 in 10.0 mi WSW 9.2 mph - 0.01 in   Overcast
9:53 PM 50.0 °F 46.9 °F 89% 29.95 in 10.0 mi South 3.5 mph - N/A   Overcast
10:21 PM 50.0 °F 46.4 °F 87% 29.95 in 10.0 mi SSW 3.5 mph - N/A   Overcast
10:53 PM 50.0 °F 46.9 °F 89% 29.95 in 10.0 mi SSW 5.8 mph - N/A   Overcast
11:15 PM 50.0 °F 46.4 °F 87% 29.95 in 10.0 mi SW 6.9 mph - N/A   Overcast
11:47 PM 50.0 °F 46.4 °F 87% 29.95 in 10.0 mi South 4.6 mph - N/A   Overcast
11:53 PM 50.0 °F 46.9 °F 89% 29.95 in 10.0 mi SSW 4.6 mph - N/A   Overcast